Previsão horária em Cered

Hoje, 29 Julho, Quinta-feira

Tempo Temperatura Precipitação Vento Pressão Humidade
00:00 +22°C° 0 mm 1 m/s 724 mmHg 61%
01:00 +21°C° 0 mm 1 m/s 724 mmHg 66%
02:00 +19°C° 0.1 mm 2 m/s 724 mmHg 75%
03:00 +18°C° 0.1 mm 2 m/s 725 mmHg 83%
04:00 +17°C° 0.1 mm 2 m/s 725 mmHg 92%
05:00 +19°C° 0.1 mm 2 m/s 725 mmHg 87%
06:00 +20°C° 0.1 mm 2 m/s 725 mmHg 83%
07:00 +21°C° 0 mm 2 m/s 726 mmHg 78%
08:00 +24°C° 0 mm 2 m/s 726 mmHg 69%
09:00 +26°C° 0 mm 2 m/s 726 mmHg 59%
10:00 +28°C° 0 mm 3 m/s 727 mmHg 49%
11:00 +29°C° 0 mm 3 m/s 727 mmHg 43%
12:00 +30°C° 0 mm 3 m/s 727 mmHg 37%
13:00 +32°C° 0 mm 4 m/s 726 mmHg 30%
14:00 +32°C° 0 mm 4 m/s 726 mmHg 31%
15:00 +32°C° 0 mm 4 m/s 726 mmHg 31%
16:00 +30°C° 0 mm 4 m/s 726 mmHg 31%
17:00 +28°C° 0 mm 3 m/s 726 mmHg 40%
18:00 +26°C° 0 mm 3 m/s 726 mmHg 48%
19:00 +24°C° 0 mm 2 m/s 726 mmHg 57%
20:00 +23°C° 0 mm 2 m/s 726 mmHg 58%
21:00 +22°C° 0 mm 1 m/s 726 mmHg 60%
22:00 +21°C° 0 mm 1 m/s 726 mmHg 61%
23:00 +20°C° 0 mm 1 m/s 726 mmHg 63%

Amanhã, 30 Julho, Sexta-feira

Tempo Temperatura Precipitação Vento Pressão Humidade
00:00 +20°C° 0 mm 1 m/s 726 mmHg 65%
01:00 +20°C° 0 mm 1 m/s 726 mmHg 67%
02:00 +19°C° 0 mm 1 m/s 726 mmHg 70%
03:00 +19°C° 0 mm 1 m/s 726 mmHg 73%
04:00 +19°C° 0 mm 1 m/s 726 mmHg 76%
05:00 +20°C° 0 mm 1 m/s 726 mmHg 71%
06:00 +22°C° 0 mm 1 m/s 726 mmHg 67%
07:00 +24°C° 0 mm 1 m/s 727 mmHg 62%
08:00 +26°C° 0 mm 1 m/s 727 mmHg 55%
09:00 +28°C° 0 mm 1 m/s 727 mmHg 49%
10:00 +30°C° 0 mm 1 m/s 727 mmHg 43%
11:00 +31°C° 0 mm 1 m/s 726 mmHg 39%
12:00 +32°C° 0 mm 2 m/s 726 mmHg 36%
13:00 +34°C° 0 mm 2 m/s 725 mmHg 33%
14:00 +34°C° 0 mm 2 m/s 725 mmHg 34%
15:00 +32°C° 0 mm 2 m/s 725 mmHg 35%
16:00 +32°C° 0 mm 1 m/s 724 mmHg 37%
17:00 +30°C° 0 mm 1 m/s 724 mmHg 42%
18:00 +28°C° 0 mm 1 m/s 724 mmHg 47%
19:00 +27°C° 0 mm 1 m/s 723 mmHg 52%
20:00 +26°C° 0 mm 1 m/s 723 mmHg 53%
21:00 +25°C° 0 mm 1 m/s 723 mmHg 54%
22:00 +22°C° 0 mm 0 m/s 723 mmHg 55%
23:00 +23°C° 0 mm 1 m/s 723 mmHg 58%

Depois de amanhã, 31 Julho, Sábado

Tempo Temperatura Precipitação Vento Pressão Humidade
00:00 +22°C° 0 mm 1 m/s 723 mmHg 61%
01:00 +22°C° 0 mm 1 m/s 723 mmHg 64%
02:00 +21°C° 0.1 mm 1 m/s 723 mmHg 67%
03:00 +21°C° 0.1 mm 1 m/s 723 mmHg 70%
04:00 +20°C° 0.1 mm 1 m/s 723 mmHg 72%
05:00 +21°C° 0.2 mm 1 m/s 723 mmHg 72%
06:00 +22°C° 0.2 mm 1 m/s 723 mmHg 72%
07:00 +23°C° 0.2 mm 1 m/s 723 mmHg 72%
08:00 +25°C° 0 mm 1 m/s 723 mmHg 62%
09:00 +27°C° 0 mm 1 m/s 723 mmHg 53%
10:00 +30°C° 0 mm 1 m/s 723 mmHg 44%
11:00 +30°C° 0 mm 2 m/s 723 mmHg 42%
12:00 +31°C° 0 mm 3 m/s 723 mmHg 41%
13:00 +33°C° 0 mm 5 m/s 723 mmHg 39%
14:00 +32°C° 0 mm 5 m/s 723 mmHg 42%
15:00 +30°C° 0 mm 5 m/s 723 mmHg 44%
16:00 +29°C° 0 mm 5 m/s 723 mmHg 47%
17:00 +27°C° 0 mm 5 m/s 723 mmHg 53%
18:00 +25°C° 0 mm 4 m/s 723 mmHg 59%
19:00 +22°C° 0 mm 3 m/s 723 mmHg 65%
20:00 +21°C° 0 mm 2 m/s 723 mmHg 70%
21:00 +20°C° 0 mm 2 m/s 724 mmHg 74%
22:00 +20°C° 0 mm 1 m/s 724 mmHg 78%
23:00 +20°C° 0 mm 1 m/s 724 mmHg 80%

1 Agosto, Domingo

Tempo Temperatura Precipitação Vento Pressão Humidade
00:00 +20°C° 0 mm 1 m/s 724 mmHg 81%
01:00 +19°C° 0 mm 1 m/s 724 mmHg 83%
02:00 +19°C° 0 mm 1 m/s 724 mmHg 85%
03:00 +16°C° 0 mm 0 m/s 724 mmHg 87%
04:00 +16°C° 0 mm 0 m/s 724 mmHg 89%
05:00 +19°C° 0.1 mm 1 m/s 724 mmHg 85%
06:00 +20°C° 0.1 mm 1 m/s 724 mmHg 80%
07:00 +22°C° 0.1 mm 1 m/s 724 mmHg 75%
08:00 +24°C° 0.2 mm 1 m/s 724 mmHg 67%
09:00 +25°C° 0.2 mm 1 m/s 724 mmHg 60%
10:00 +27°C° 0.2 mm 2 m/s 724 mmHg 53%
11:00 +29°C° 0 mm 2 m/s 723 mmHg 48%
12:00 +30°C° 0 mm 3 m/s 723 mmHg 43%
13:00 +32°C° 0 mm 4 m/s 722 mmHg 38%
14:00 +33°C° 0 mm 4 m/s 721 mmHg 35%
15:00 +34°C° 0 mm 4 m/s 721 mmHg 31%
16:00 +35°C° 0 mm 5 m/s 720 mmHg 28%
17:00 +32°C° 0.2 mm 4 m/s 720 mmHg 41%
18:00 +27°C° 0.2 mm 3 m/s 720 mmHg 55%
19:00 +24°C° 0.2 mm 2 m/s 719 mmHg 68%
20:00 +21°C° 0.2 mm 2 m/s 720 mmHg 75%
21:00 +20°C° 0.2 mm 2 m/s 720 mmHg 82%
22:00 +19°C° 0.2 mm 1 m/s 721 mmHg 89%
23:00 +18°C° 0.1 mm 2 m/s 721 mmHg 90%

2 Agosto, Segunda-feira

Tempo Temperatura Precipitação Vento Pressão Humidade
00:00 +17°C° 0.1 mm 2 m/s 721 mmHg 92%
01:00 +16°C° 0.1 mm 2 m/s 721 mmHg 94%
02:00 +16°C° 0 mm 2 m/s 722 mmHg 93%
03:00 +16°C° 0 mm 3 m/s 722 mmHg 93%
04:00 +16°C° 0 mm 3 m/s 722 mmHg 92%
05:00 +17°C° 0 mm 3 m/s 722 mmHg 87%
06:00 +17°C° 0 mm 4 m/s 722 mmHg 81%
07:00 +18°C° 0 mm 4 m/s 723 mmHg 76%
08:00 +20°C° 0 mm 4 m/s 723 mmHg 67%
09:00 +22°C° 0 mm 5 m/s 724 mmHg 58%
10:00 +23°C° 0 mm 5 m/s 724 mmHg 49%
11:00 +25°C° 0.1 mm 5 m/s 725 mmHg 47%
12:00 +25°C° 0.1 mm 5 m/s 725 mmHg 45%
13:00 +26°C° 0.1 mm 4 m/s 725 mmHg 43%
14:00 +26°C° 0 mm 4 m/s 725 mmHg 41%
15:00 +26°C° 0 mm 4 m/s 725 mmHg 40%
16:00 +26°C° 0 mm 3 m/s 726 mmHg 38%
17:00 +24°C° 0 mm 3 m/s 726 mmHg 45%
18:00 +21°C° 0 mm 2 m/s 726 mmHg 52%
19:00 +19°C° 0 mm 2 m/s 726 mmHg 59%
20:00 +19°C° 0 mm 1 m/s 726 mmHg 63%
21:00 +18°C° 0 mm 1 m/s 727 mmHg 68%
22:00 +15°C° 0 mm 1 m/s 727 mmHg 73%
23:00 +14°C° 0 mm 0 m/s 727 mmHg 75%

3 Agosto, Terça-feira

Tempo Temperatura Precipitação Vento Pressão Humidade
00:00 +14°C° 0 mm 0 m/s 727 mmHg 77%
01:00 +13°C° 0 mm 0 m/s 728 mmHg 79%
02:00 +13°C° 0 mm 0 m/s 728 mmHg 80%
03:00 +12°C° 0 mm 0 m/s 728 mmHg 81%
04:00 +12°C° 0 mm 0 m/s 728 mmHg 82%
05:00 +14°C° 0 mm 0 m/s 728 mmHg 75%
06:00 +16°C° 0 mm 0 m/s 729 mmHg 69%
07:00 +20°C° 0 mm 1 m/s 729 mmHg 62%
08:00 +22°C° 0 mm 1 m/s 729 mmHg 55%
09:00 +24°C° 0 mm 2 m/s 729 mmHg 49%
10:00 +26°C° 0 mm 2 m/s 729 mmHg 42%
11:00 +27°C° 0 mm 3 m/s 729 mmHg 39%
12:00 +27°C° 0 mm 3 m/s 729 mmHg 35%
13:00 +28°C° 0 mm 3 m/s 728 mmHg 32%
14:00 +29°C° 0 mm 3 m/s 728 mmHg 32%
15:00 +29°C° 0 mm 3 m/s 728 mmHg 32%
16:00 +29°C° 0 mm 2 m/s 727 mmHg 32%
17:00 +27°C° 0 mm 2 m/s 727 mmHg 38%
18:00 +25°C° 0 mm 1 m/s 727 mmHg 45%
19:00 +21°C° 0 mm 0 m/s 726 mmHg 51%
20:00 +22°C° 0 mm 1 m/s 726 mmHg 53%
21:00 +22°C° 0 mm 1 m/s 726 mmHg 54%
22:00 +21°C° 0 mm 1 m/s 726 mmHg 55%
23:00 +21°C° 0 mm 1 m/s 726 mmHg 57%
Mostrar mais

Necessitamos do seu Consentimento

A Meteoprog e os seus Fornecedores de Serviços podem armazenar e aceder a dados pessoais como cookies, identificadores do dispositivo ou outras tecnologias semelhantes existentes no seu dispositivo e processar estes dados para personalizar conteúdos e anúncios, assim como funcionalidades nas redes sociais e análise de tráfego.

  • Armazenar e/ou aceder a informações no seu dispositivo

    Os cookies, identificadores do dispositivo ou outras informações podem ser armazenados ou acedidos no seu dispositivo, para os fins acima indicados.

  • Anúncios e conteúdos personalizados, medição de anúncios e conteúdos, dados sobre o público-alvo e desenvolvimento de produtos

    Os anúncios e os conteúdos podem ser personalizados com base num perfil. Podem ser adicionados dados adicionais para uma maior personalização dos anúncios e dos conteúdos. A eficácia dos anúncios e dos conteúdos pode ser medida. Podem ser obtidas informações sobre o público que visualizou os anúncios e os conteúdos. Estes dados podem ser usados para desenvolver ou melhorar sistemas, softwares ou a experiência do utilizador.

Ao clicar em "Eu concordo”, permitirá o uso de cookies, identificadores do dispositivo e web beacons mencionados ou outras tecnologias semelhantes. As configurações do navegador do seu dispositivo podem ser alteradas.

Para certos fins, podem ser invocados interesses legítimos ao invés de consentimento. Pode ler mais informação sobre este assunto na nossa Política de Privacidade e Cookies.